SCP
0 0 0 0 0 0 0 0 0 0 0 0 0 0 0 0 0 0 0 0 0 0
0 0 0 0 0 0 0 0 0 0 0 0 0 0 0 0 0 0 0 0 0 0
0 0 0 0 0 0 0 0 0 0 0 0 0 0 0 0 0 0 0 0 0 0
0 0 0 0 0 0 0 0 0 0 0 0 0 0 0 0 0 0 0 0 0 0
0 0 0 0 -0 -0 -0 0 0 0 0 0 0 0 0 0 0 0 0 0 0 0
0 0 0 -0 -0 -0 -0 -0 0 0 0 0 0 0 0 0 0 0 0 0 0 0
-0 -0 -0 -0 0 0 -0 -0 0 0 0 0 0 0 0 0 0 0 0 0 0 0
-0 -0 -0 0 -0 0 0 -0 -0 0 0 0 0 0 0 0 0 0 0 0 0 0
-0 -0 -0 -0 -0 0 -0 -0 0 0 0 0 0 0 0 0 0 0 0 0 0 0
0 0 -0 -0 -0 -0 -0 -0 -0 -0 0 0 0 0 0 0 0 0 0 0 0 0
0 0 0 0 0 0 0 -0 -0 -0 -0 0 0 -0 0 -0 0 0 0 0 0 0
0 0 0 0 0 0 0 0 0 -0 -0 -0 -0 -0 -0 0 -0 -0 0 0 0 0
0 0 0 0 0 0 0 0 0 0 0 -0 0 -0 -0 0 0 -0 0 0 0 -0
0 0 0 0 0 0 0 0 0 0 0 0 0 0 0 0 0 0 0 0 0 0
Wind_Speed_500mb
73 74 78 88 83 76 77 77 76 79 81 85 84 79 84 86 84 76 74 83 96 93
64 73 77 77 76 75 72 77 72 74 74 77 81 78 77 76 82 81 80 78 78 83
44 52 68 69 68 72 74 66 65 65 67 71 74 69 63 66 71 71 78 81 76 80
47 46 48 53 59 61 67 67 58 53 55 62 63 65 62 61 60 66 70 72 77 82
41 44 43 49 55 62 63 67 65 54 47 54 58 60 60 63 60 59 62 63 70 80
34 37 40 46 49 49 56 60 65 62 53 51 52 54 62 61 64 62 65 68 68 67
38 34 32 36 43 45 49 52 50 53 55 56 55 55 55 56 58 62 61 64 65 65
24 31 34 32 31 41 47 50 53 52 53 51 57 56 58 60 66 61 58 60 63 68
25 25 44 32 34 29 38 42 44 48 51 53 53 57 62 63 61 58 60 66 67 71
30 9 27 38 48 39 30 32 38 41 48 52 57 62 64 67 69 63 64 59 60 55
41 34 27 22 30 43 49 46 48 47 53 57 64 70 68 68 65 58 63 62 62 58
47 42 37 33 23 21 18 20 17 14 16 28 43 57 67 71 69 73 74 66 49 57
37 38 41 38 36 32 26 33 29 29 30 32 25 26 33 32 41 54 51 39 35 40
31 30 27 24 24 23 26 23 27 29 32 34 40 42 43 46 43 41 35 29 22 16
Wind_Direction_500mb
269 269 264 258 249 243 237 232 233 232 229 229 230 232 237 234 238 241 241 239 235 248
261 262 263 257 249 242 239 233 230 233 229 230 230 231 233 240 239 239 244 246 244 242
279 264 255 249 247 239 235 233 226 230 230 229 229 228 232 237 240 238 240 244 244 244
280 270 262 257 247 240 233 232 227 226 227 226 226 224 226 232 238 239 239 242 246 245
281 281 269 260 253 240 231 229 228 227 225 223 227 226 228 229 232 238 244 246 245 246
269 262 268 261 252 247 234 231 231 228 228 234 236 234 229 231 237 244 247 251 254 254
283 249 249 252 247 239 234 230 227 237 238 234 232 235 235 233 237 244 248 247 251 255
288 248 235 235 237 237 236 238 241 243 242 235 233 236 238 240 249 251 246 242 247 253
339 273 233 228 228 236 231 233 234 232 234 237 238 243 244 248 249 250 255 246 250 249
46 78 241 226 228 233 236 235 239 242 243 245 245 241 241 244 249 256 257 251 242 250
52 69 107 171 207 227 235 244 246 249 253 250 248 252 250 245 245 243 245 243 241 257
52 63 69 89 118 134 169 176 173 188 215 239 251 258 259 247 233 231 236 245 249 262
45 51 69 77 78 85 94 93 102 104 94 90 95 130 193 205 206 185 216 208 188 212
38 46 50 58 66 62 73 77 77 71 71 76 78 88 105 123 135 142 142 142 140 138
Wind_Speed_850mb
73 74 78 88 83 76 77 77 76 79 81 85 84 79 84 86 84 76 74 83 96 93
64 73 77 77 76 75 72 77 72 74 74 77 81 78 77 76 82 81 80 78 78 83
44 52 68 69 68 72 74 66 65 65 67 71 74 69 63 66 71 71 78 81 76 80
47 46 48 53 59 61 67 67 58 53 55 62 63 65 62 61 60 66 70 72 77 82
41 44 43 49 55 62 63 67 65 54 47 54 58 60 60 63 60 59 62 63 70 80
34 37 40 46 49 49 56 60 65 62 53 51 52 54 62 61 64 62 65 68 68 67
38 34 32 36 43 45 49 52 50 53 55 56 55 55 55 56 58 62 61 64 65 65
24 31 34 32 31 41 47 50 53 52 53 51 57 56 58 60 66 61 58 60 63 68
25 25 44 32 34 29 38 42 44 48 51 53 53 57 62 63 61 58 60 66 67 71
30 9 27 38 48 39 30 32 38 41 48 52 57 62 64 67 69 63 64 59 60 55
41 34 27 22 30 43 49 46 48 47 53 57 64 70 68 68 65 58 63 62 62 58
47 42 37 33 23 21 18 20 17 14 16 28 43 57 67 71 69 73 74 66 49 57
37 38 41 38 36 32 26 33 29 29 30 32 25 26 33 32 41 54 51 39 35 40
31 30 27 24 24 23 26 23 27 29 32 34 40 42 43 46 43 41 35 29 22 16
Wind_Direction_850mb
269 269 264 258 249 243 237 232 233 232 229 229 230 232 237 234 238 241 241 239 235 248
261 262 263 257 249 242 239 233 230 233 229 230 230 231 233 240 239 239 244 246 244 242
279 264 255 249 247 239 235 233 226 230 230 229 229 228 232 237 240 238 240 244 244 244
280 270 262 257 247 240 233 232 227 226 227 226 226 224 226 232 238 239 239 242 246 245
281 281 269 260 253 240 231 229 228 227 225 223 227 226 228 229 232 238 244 246 245 246
269 262 268 261 252 247 234 231 231 228 228 234 236 234 229 231 237 244 247 251 254 254
283 249 249 252 247 239 234 230 227 237 238 234 232 235 235 233 237 244 248 247 251 255
288 248 235 235 237 237 236 238 241 243 242 235 233 236 238 240 249 251 246 242 247 253
339 273 233 228 228 236 231 233 234 232 234 237 238 243 244 248 249 250 255 246 250 249
46 78 241 226 228 233 236 235 239 242 243 245 245 241 241 244 249 256 257 251 242 250
52 69 107 171 207 227 235 244 246 249 253 250 248 252 250 245 245 243 245 243 241 257
52 63 69 89 118 134 169 176 173 188 215 239 251 258 259 247 233 231 236 245 249 262
45 51 69 77 78 85 94 93 102 104 94 90 95 130 193 205 206 185 216 208 188 212
38 46 50 58 66 62 73 77 77 71 71 76 78 88 105 123 135 142 142 142 140 138